| time (UTC) | temp F | wind direction | speed knots | gust knots | rain 1hr in | rain 24hr in | rain mn in | humidity % | barometer mb |
| 20260902092858 | 61 | 180 | 0.9 | 0.9 | 0.00 | 0.00 | 0.00 | 84 | 1013.4 |
| 20260902092353 | 61 | 293 | 0.9 | 0.9 | 0.00 | 0.00 | 0.00 | 85 | 1013.5 |
| 20260902091848 | 60 | 248 | 1.7 | 1.7 | 0.00 | 0.00 | 0.00 | 85 | 1013.5 |
| 20260902091338 | 60 | 203 | 2.6 | 2.6 | 0.00 | 0.00 | 0.00 | 86 | 1013.5 |
| 20260902090328 | 60 | 293 | 1.7 | 1.7 | 0.00 | 0.00 | 0.00 | 86 | 1013.5 |
| 20260902085823 | 60 | 248 | 1.7 | 1.7 | 0.00 | 0.00 | 0.00 | 86 | 1013.5 |
| 20260902085318 | 60 | 248 | 1.7 | 1.7 | 0.00 | 0.00 | 0.00 | 86 | 1013.5 |
| 20260902084809 | 60 | 225 | 1.7 | 1.7 | 0.00 | 0.00 | 0.00 | 86 | 1013.5 |
| 20260902084303 | 60 | 248 | 0.0 | 0.0 | 0.00 | 0.00 | 0.00 | 85 | 1013.5 |
| 20260902083758 | 60 | 248 | 0.0 | 0.0 | 0.00 | 0.00 | 0.00 | 85 | 1013.7 |
| 20260902083253 | 60 | 293 | 0.0 | 0.0 | 0.00 | 0.00 | 0.00 | 84 | 1013.7 |
| 20260902082238 | 60 | 225 | 0.0 | 0.0 | 0.00 | 0.00 | 0.00 | 84 | 1013.6 |
| 20260902081733 | 60 | 315 | 0.0 | 0.0 | 0.00 | 0.00 | 0.00 | 85 | 1013.6 |
| 20260902081228 | 60 | 23 | 1.7 | 1.7 | 0.00 | 0.00 | 0.00 | 85 | 1013.6 |
| 20260902080723 | 61 | 225 | 1.7 | 1.7 | 0.00 | 0.00 | 0.00 | 85 | 1013.6 |
| 20260902075203 | 60 | 293 | 2.6 | 2.6 | 0.00 | 0.00 | 0.00 | 86 | 1013.6 |
| 20260902074659 | 60 | 338 | 2.6 | 2.6 | 0.00 | 0.00 | 0.00 | 86 | 1013.6 |
| 20260902074153 | 60 | 45 | 3.5 | 3.5 | 0.00 | 0.00 | 0.00 | 86 | 1013.6 |
| 20260902073648 | 60 | 293 | 3.5 | 3.5 | 0.00 | 0.00 | 0.00 | 86 | 1013.4 |
| 20260902073138 | 60 | 248 | 2.6 | 2.6 | 0.00 | 0.00 | 0.00 | 86 | 1013.4 |
| 20260902072633 | 60 | 203 | 2.6 | 2.6 | 0.00 | 0.00 | 0.00 | 86 | 1013.3 |
| 20260902072128 | 60 | 293 | 0.9 | 0.9 | 0.00 | 0.00 | 0.00 | 86 | 1013.3 |
| 20260902071623 | 60 | 338 | 2.6 | 2.6 | 0.00 | 0.00 | 0.00 | 86 | 1013.3 |
| 20260902071119 | 59 | 338 | 1.7 | 1.7 | 0.00 | 0.00 | 0.00 | 86 | 1013.2 |
| 20260902070608 | 59 | 338 | 1.7 | 1.7 | 0.00 | 0.00 | 0.00 | 86 | 1013.2 |
| 20260902070049 | 59 | 338 | 0.0 | 0.0 | 0.00 | 0.00 | 0.00 | 85 | 1013.1 |
| 20260902065539 | 59 | 0 | 0.0 | 0.0 | 0.00 | 0.00 | 0.00 | 85 | 1013.1 |
| 20260902065033 | 59 | 338 | 0.0 | 0.0 | 0.00 | 0.00 | 0.00 | 85 | 1013.0 |
| 20260902064528 | 60 | 338 | 0.0 | 0.0 | 0.00 | 0.00 | 0.00 | 85 | 1013.0 |
| 20260902064023 | 60 | 338 | 0.0 | 0.0 | 0.00 | 0.00 | 0.00 | 85 | 1013.0 |
| 20260902063518 | 60 | 293 | 0.9 | 0.9 | 0.00 | 0.00 | 0.00 | 85 | 1013.2 |
| 20260902063008 | 60 | 203 | 0.9 | 0.9 | 0.00 | 0.00 | 0.00 | 85 | 1013.2 |
| 20260902062503 | 60 | 338 | 1.7 | 1.7 | 0.00 | 0.00 | 0.00 | 85 | 1013.0 |
| 20260902061959 | 60 | 338 | 1.7 | 1.7 | 0.00 | 0.00 | 0.00 | 84 | 1013.0 |
| 20260902061454 | 60 | 293 | 0.0 | 0.0 | 0.00 | 0.00 | 0.00 | 83 | 1013.0 |
| 20260902060943 | 60 | 315 | 0.0 | 0.0 | 0.00 | 0.00 | 0.00 | 82 | 1013.0 |
| 20260902060438 | 60 | 270 | 0.0 | 0.0 | 0.00 | 0.00 | 0.00 | 81 | 1013.0 |
| 20260902055933 | 61 | 158 | 0.0 | 0.0 | 0.00 | 0.00 | 0.00 | 81 | 1013.0 |
| 20260902055429 | 60 | 113 | 1.7 | 1.7 | 0.00 | 0.00 | 0.00 | 82 | 1013.0 |
| 20260902054419 | 60 | 270 | 1.7 | 1.7 | 0.00 | 0.00 | 0.00 | 82 | 1013.0 |
| 20260902053908 | 60 | 338 | 0.0 | 0.0 | 0.00 | 0.00 | 0.00 | 80 | 1012.9 |
| 20260902053403 | 61 | 315 | 0.9 | 0.9 | 0.00 | 0.00 | 0.00 | 80 | 1012.9 |
| 20260902052858 | 61 | 90 | 0.9 | 0.9 | 0.00 | 0.00 | 0.00 | 80 | 1012.9 |
| 20260902052333 | 61 | 113 | 1.7 | 1.7 | 0.00 | 0.00 | 0.00 | 80 | 1012.9 |
| 20260902051829 | 61 | 113 | 0.0 | 0.0 | 0.00 | 0.00 | 0.00 | 78 | 1012.9 |
| 20260902051323 | 61 | 113 | 0.9 | 0.9 | 0.00 | 0.00 | 0.00 | 78 | 1012.9 |
| 20260902050819 | 61 | 293 | 1.7 | 1.7 | 0.00 | 0.00 | 0.00 | 75 | 1012.9 |
| 20260902050309 | 61 | 113 | 0.0 | 0.0 | 0.00 | 0.00 | 0.00 | 74 | 1012.9 |
| 20260902045803 | 61 | 180 | 0.0 | 0.0 | 0.00 | 0.00 | 0.00 | 74 | 1012.9 |
| 20260902045259 | 61 | 293 | 0.9 | 0.9 | 0.00 | 0.00 | 0.00 | 73 | 1012.9 |
| 20260902044754 | 61 | 338 | 1.7 | 1.7 | 0.00 | 0.00 | 0.00 | 70 | 1012.9 |
| 20260902044249 | 61 | 315 | 0.9 | 0.9 | 0.00 | 0.00 | 0.00 | 69 | 1012.9 |
| 20260902043739 | 61 | 338 | 1.7 | 1.7 | 0.00 | 0.00 | 0.00 | 70 | 1012.8 |
| 20260902043233 | 61 | 338 | 1.7 | 1.7 | 0.00 | 0.00 | 0.00 | 71 | 1012.8 |
| 20260902042204 | 61 | 338 | 1.7 | 1.7 | 0.00 | 0.00 | 0.00 | 70 | 1012.6 |
| 20260902041154 | 62 | 293 | 0.0 | 0.0 | 0.00 | 0.00 | 0.00 | 69 | 1012.4 |
| 20260902040139 | 62 | 180 | 0.0 | 0.0 | 0.00 | 0.00 | 0.00 | 69 | 1012.1 |
| 20260902035633 | 62 | 203 | 0.0 | 0.0 | 0.00 | 0.00 | 0.00 | 68 | 1012.1 |
| 20260902035129 | 62 | 248 | 0.0 | 0.0 | 0.00 | 0.00 | 0.00 | 69 | 1011.9 |
| 20260902034114 | 63 | 135 | 0.9 | 0.9 | 0.00 | 0.00 | 0.00 | 68 | 1011.9 |
| 20260902033609 | 63 | 135 | 0.9 | 0.9 | 0.00 | 0.00 | 0.00 | 63 | 1011.7 |
| 20260902033104 | 64 | 338 | 0.0 | 0.0 | 0.00 | 0.00 | 0.00 | 62 | 1011.7 |
| 20260902032559 | 64 | 23 | 0.0 | 0.0 | 0.00 | 0.00 | 0.00 | 60 | 1011.8 |
| 20260902032054 | 65 | 158 | 0.0 | 0.0 | 0.00 | 0.00 | 0.00 | 61 | 1011.8 |
| 20260902031544 | 65 | 248 | 0.0 | 0.0 | 0.00 | 0.00 | 0.00 | 58 | 1011.6 |
| 20260902031039 | 65 | 180 | 0.0 | 0.0 | 0.00 | 0.00 | 0.00 | 54 | 1011.6 |
| 20260902030534 | 66 | 0 | 0.0 | 0.0 | 0.00 | 0.00 | 0.00 | 44 | 1011.6 |
| 20260902030029 | 66 | 315 | 1.7 | 1.7 | 0.00 | 0.00 | 0.00 | 40 | 1011.5 |
| 20260902025014 | 66 | 23 | 2.6 | 2.6 | 0.00 | 0.00 | 0.00 | 49 | 1011.5 |
| 20260902024508 | 67 | 270 | 4.3 | 4.3 | 0.00 | 0.00 | 0.00 | 44 | 1011.5 |
| 20260902024004 | 67 | 0 | 2.6 | 2.6 | 0.00 | 0.00 | 0.00 | 26 | 1011.4 |
| 20260902023459 | 67 | 23 | 4.3 | 4.3 | 0.00 | 0.00 | 0.00 | 27 | 1011.4 |
| 20260902022954 | 67 | 270 | 4.3 | 4.3 | 0.00 | 0.00 | 0.00 | 30 | 1011.4 |
| 20260902022444 | 67 | 270 | 3.5 | 3.5 | 0.00 | 0.00 | 0.00 | 32 | 1011.3 |
| 20260902021939 | 66 | 0 | 3.5 | 3.5 | 0.00 | 0.00 | 0.00 | 35 | 1011.3 |
| 20260902021434 | 66 | 293 | 3.5 | 3.5 | 0.00 | 0.00 | 0.00 | 47 | 1011.3 |
| 20260902020929 | 65 | 270 | 4.3 | 4.3 | 0.00 | 0.00 | 0.00 | 51 | 1011.3 |
| 20260902020424 | 64 | 23 | 4.3 | 4.3 | 0.00 | 0.00 | 0.00 | 62 | 1011.6 |
| 20260902015409 | 64 | 0 | 3.5 | 3.5 | 0.00 | 0.00 | 0.00 | 72 | 1011.6 |
| 20260902014904 | 65 | 0 | 2.6 | 2.6 | 0.00 | 0.00 | 0.00 | 72 | 1011.5 |
| 20260902014359 | 65 | 270 | 4.3 | 4.3 | 0.00 | 0.00 | 0.00 | 72 | 1011.5 |
| 20260902013854 | 65 | 270 | 1.7 | 1.7 | 0.00 | 0.00 | 0.00 | 70 | 1011.6 |
| 20260902013344 | 66 | 23 | 3.5 | 3.5 | 0.00 | 0.00 | 0.00 | 71 | 1011.6 |
| 20260902012839 | 66 | 225 | 4.3 | 4.3 | 0.00 | 0.00 | 0.00 | 68 | 1011.6 |
| 20260902012334 | 67 | 270 | 2.6 | 2.6 | 0.00 | 0.00 | 0.00 | 63 | 1011.7 |
| 20260902011829 | 67 | 270 | 2.6 | 2.6 | 0.00 | 0.00 | 0.00 | 63 | 1011.7 |
| 20260902011319 | 68 | 0 | 3.5 | 3.5 | 0.00 | 0.00 | 0.00 | 62 | 1011.7 |
| 20260902010814 | 68 | 315 | 4.3 | 4.3 | 0.00 | 0.00 | 0.00 | 60 | 1011.7 |
| 20260902010309 | 70 | 338 | 3.5 | 3.5 | 0.00 | 0.00 | 0.00 | 60 | 1011.9 |
| 20260902005804 | 71 | 315 | 4.3 | 4.3 | 0.00 | 0.00 | 0.00 | 56 | 1011.9 |
| 20260902005259 | 73 | 0 | 3.5 | 3.5 | 0.00 | 0.00 | 0.00 | 58 | 1011.9 |
| 20260902004754 | 73 | 270 | 4.3 | 4.3 | 0.00 | 0.00 | 0.00 | 56 | 1011.8 |
| 20260902004244 | 73 | 0 | 4.3 | 4.3 | 0.00 | 0.00 | 0.00 | 56 | 1011.8 |
| 20260902003739 | 74 | 270 | 5.2 | 5.2 | 0.00 | 0.00 | 0.00 | 54 | 1011.7 |
| 20260902003234 | 75 | 315 | 5.2 | 5.2 | 0.00 | 0.00 | 0.00 | 53 | 1011.7 |
| 20260902002729 | 75 | 225 | 4.3 | 4.3 | 0.00 | 0.00 | 0.00 | 53 | 1011.7 |
| 20260902002219 | 75 | 45 | 5.2 | 5.2 | 0.00 | 0.00 | 0.00 | 54 | 1011.7 |
| 20260902001714 | 76 | 225 | 5.2 | 5.2 | 0.00 | 0.00 | 0.00 | 53 | 1011.7 |
| 20260902001209 | 76 | 68 | 4.3 | 4.3 | 0.00 | 0.00 | 0.00 | 52 | 1011.9 |
| 20260902000704 | 77 | 23 | 4.3 | 4.3 | 0.00 | 0.00 | 0.00 | 52 | 1011.9 |
| 20260901235649 | 77 | 270 | 4.3 | 4.3 | 0.00 | 0.00 | 0.00 | 52 | 1012.0 |
| 20260901234639 | 77 | 270 | 5.2 | 5.2 | 0.00 | 0.00 | 0.00 | 52 | 1012.0 |
| 20260901234134 | 76 | 225 | 6.1 | 6.1 | 0.00 | 0.00 | 0.00 | 52 | 1012.0 |
| 20260901232614 | 78 | 338 | 4.3 | 4.3 | 0.00 | 0.00 | 0.00 | 53 | 1012.0 |
| 20260901232109 | 78 | 45 | 4.3 | 4.3 | 0.00 | 0.00 | 0.00 | 53 | 1012.0 |
| 20260901231604 | 78 | 270 | 4.3 | 4.3 | 0.00 | 0.00 | 0.00 | 53 | 1012.0 |
| 20260901231059 | 79 | 248 | 6.1 | 6.1 | 0.00 | 0.00 | 0.00 | 53 | 1012.0 |
| 20260901230554 | 79 | 225 | 5.2 | 5.2 | 0.00 | 0.00 | 0.00 | 52 | 1012.0 |
| 20260901225539 | 79 | 0 | 4.3 | 4.3 | 0.00 | 0.00 | 0.00 | 52 | 1012.1 |
| 20260901225034 | 80 | 45 | 4.3 | 4.3 | 0.00 | 0.00 | 0.00 | 49 | 1012.2 |
| 20260901224524 | 81 | 248 | 4.3 | 4.3 | 0.00 | 0.00 | 0.00 | 51 | 1012.2 |
| 20260901224019 | 80 | 270 | 4.3 | 4.3 | 0.00 | 0.00 | 0.00 | 51 | 1012.2 |
| 20260901223514 | 80 | 225 | 5.2 | 5.2 | 0.00 | 0.00 | 0.00 | 51 | 1012.3 |
| 20260901222504 | 81 | 248 | 4.3 | 4.3 | 0.00 | 0.00 | 0.00 | 51 | 1012.5 |
| 20260901221954 | 82 | 158 | 4.3 | 4.3 | 0.00 | 0.00 | 0.00 | 50 | 1012.5 |
| 20260901221449 | 80 | 293 | 3.5 | 3.5 | 0.00 | 0.00 | 0.00 | 52 | 1012.6 |
| 20260901220944 | 79 | 180 | 3.5 | 3.5 | 0.00 | 0.00 | 0.00 | 52 | 1012.6 |
| 20260901220439 | 80 | 180 | 3.5 | 3.5 | 0.00 | 0.00 | 0.00 | 51 | 1012.6 |
| 20260901215934 | 77 | 203 | 4.3 | 4.3 | 0.00 | 0.00 | 0.00 | 54 | 1012.6 |
| 20260901215424 | 79 | 270 | 4.3 | 4.3 | 0.00 | 0.00 | 0.00 | 52 | 1012.6 |
| 20260901214919 | 77 | 203 | 5.2 | 5.2 | 0.00 | 0.00 | 0.00 | 55 | 1012.6 |
| 20260901214414 | 80 | 315 | 5.2 | 5.2 | 0.00 | 0.00 | 0.00 | 52 | 1012.6 |
| 20260901213909 | 82 | 0 | 4.3 | 4.3 | 0.00 | 0.00 | 0.00 | 51 | 1013.0 |
| 20260901213404 | 82 | 203 | 3.5 | 3.5 | 0.00 | 0.00 | 0.00 | 51 | 1013.0 |
| 20260901212854 | 80 | 180 | 4.3 | 4.3 | 0.00 | 0.00 | 0.00 | 52 | 1013.0 |
| 20260901212349 | 80 | 158 | 5.2 | 5.2 | 0.00 | 0.00 | 0.00 | 52 | 1012.8 |
| 20260901211844 | 83 | 180 | 3.5 | 3.5 | 0.00 | 0.00 | 0.00 | 48 | 1012.8 |
| 20260901211340 | 84 | 158 | 2.6 | 2.6 | 0.00 | 0.00 | 0.00 | 49 | 1012.7 |
| 20260901210829 | 85 | 270 | 4.3 | 4.3 | 0.00 | 0.00 | 0.00 | 48 | 1012.7 |
| 20260901210324 | 82 | 113 | 2.6 | 2.6 | 0.00 | 0.00 | 0.00 | 50 | 1013.0 |
| 20260901205315 | 85 | 0 | 3.5 | 3.5 | 0.00 | 0.00 | 0.00 | 47 | 1013.0 |
| 20260901203250 | 85 | 158 | 1.7 | 1.7 | 0.00 | 0.00 | 0.00 | 47 | 1013.1 |
| 20260901202744 | 85 | 270 | 3.5 | 3.5 | 0.00 | 0.00 | 0.00 | 48 | 1013.3 |
| 20260901202239 | 85 | 338 | 2.6 | 2.6 | 0.00 | 0.00 | 0.00 | 48 | 1013.3 |
| 20260901201730 | 82 | 0 | 3.5 | 3.5 | 0.00 | 0.00 | 0.00 | 51 | 1013.3 |
| 20260901201225 | 85 | 203 | 4.3 | 4.3 | 0.00 | 0.00 | 0.00 | 48 | 1013.4 |
| 20260901200719 | 86 | 113 | 1.7 | 1.7 | 0.00 | 0.00 | 0.00 | 46 | 1013.4 |
| 20260901200214 | 86 | 113 | 1.7 | 1.7 | 0.00 | 0.00 | 0.00 | 46 | 1013.6 |
| 20260901195710 | 84 | 248 | 1.7 | 1.7 | 0.00 | 0.00 | 0.00 | 48 | 1013.6 |
| 20260901195159 | 82 | 158 | 1.7 | 1.7 | 0.00 | 0.00 | 0.00 | 51 | 1013.6 |
| 20260901194654 | 83 | 135 | 3.5 | 3.5 | 0.00 | 0.00 | 0.00 | 50 | 1013.6 |
| 20260901194150 | 83 | 293 | 2.6 | 2.6 | 0.00 | 0.00 | 0.00 | 50 | 1013.6 |
| 20260901193134 | 82 | 23 | 3.5 | 3.5 | 0.00 | 0.00 | 0.00 | 51 | 1013.6 |
| 20260901192105 | 80 | 225 | 3.5 | 3.5 | 0.00 | 0.00 | 0.00 | 53 | 1013.7 |
| 20260901191600 | 79 | 113 | 3.5 | 3.5 | 0.00 | 0.00 | 0.00 | 53 | 1013.7 |
| 20260901191054 | 79 | 203 | 3.5 | 3.5 | 0.00 | 0.00 | 0.00 | 53 | 1013.7 |
| 20260901185615 | 82 | 270 | 3.5 | 3.5 | 0.00 | 0.00 | 0.00 | 51 | 1013.8 |
| 20260901185105 | 86 | 225 | 3.5 | 3.5 | 0.00 | 0.00 | 0.00 | 47 | 1013.8 |
| 20260901183045 | 87 | 158 | 1.7 | 1.7 | 0.00 | 0.00 | 0.00 | 46 | 1013.9 |
| 20260901182534 | 84 | 0 | 0.9 | 0.9 | 0.00 | 0.00 | 0.00 | 49 | 1013.7 |
| 20260901181525 | 80 | 180 | 2.6 | 2.6 | 0.00 | 0.00 | 0.00 | 52 | 1014.0 |
| 20260901181020 | 83 | 113 | 1.7 | 1.7 | 0.00 | 0.00 | 0.00 | 51 | 1014.0 |
| 20260901180515 | 80 | 90 | 1.7 | 1.7 | 0.00 | 0.00 | 0.00 | 52 | 1014.0 |
| 20260901174415 | 82 | 315 | 0.9 | 0.9 | 0.00 | 0.00 | 0.00 | 50 | 1013.8 |
| 20260901173905 | 79 | 180 | 0.9 | 0.9 | 0.00 | 0.00 | 0.00 | 52 | 1013.8 |
| 20260901173400 | 81 | 293 | 0.0 | 0.0 | 0.00 | 0.00 | 0.00 | 50 | 1013.8 |
| 20260901172855 | 80 | 45 | 1.7 | 1.7 | 0.00 | 0.00 | 0.00 | 49 | 1013.8 |
| 20260901172350 | 79 | 23 | 1.7 | 1.7 | 0.00 | 0.00 | 0.00 | 52 | 1013.8 |
| 20260901171840 | 80 | 180 | 0.9 | 0.9 | 0.00 | 0.00 | 0.00 | 49 | 1013.8 |
| 20260901171245 | 77 | 225 | 1.7 | 1.7 | 0.00 | 0.00 | 0.00 | 55 | 1013.6 |
| 20260901170735 | 77 | 23 | 0.0 | 0.0 | 0.00 | 0.00 | 0.00 | 54 | 1013.6 |
| 20260901165725 | 77 | 0 | 0.9 | 0.9 | 0.00 | 0.00 | 0.00 | 55 | 1013.5 |
| 20260901164715 | 77 | 338 | 0.9 | 0.9 | 0.00 | 0.00 | 0.00 | 55 | 1013.5 |
| 20260901164205 | 75 | 270 | 0.9 | 0.9 | 0.00 | 0.00 | 0.00 | 59 | 1013.5 |
| 20260901163700 | 73 | 23 | 0.9 | 0.9 | 0.00 | 0.00 | 0.00 | 63 | 1013.3 |
| 20260901163155 | 71 | 23 | 1.7 | 1.7 | 0.00 | 0.00 | 0.00 | 66 | 1013.3 |
| 20260901162650 | 70 | 270 | 1.7 | 1.7 | 0.00 | 0.00 | 0.00 | 67 | 1013.4 |
| 20260901161635 | 69 | 180 | 0.9 | 0.9 | 0.00 | 0.00 | 0.00 | 69 | 1013.4 |
| 20260901161130 | 68 | 248 | 2.6 | 2.6 | 0.00 | 0.00 | 0.00 | 72 | 1013.5 |
| 20260901160625 | 69 | 0 | 2.6 | 2.6 | 0.00 | 0.00 | 0.00 | 70 | 1013.5 |
| 20260901155610 | 66 | 135 | 2.6 | 2.6 | 0.00 | 0.00 | 0.00 | 75 | 1013.4 |
| 20260901155105 | 66 | 270 | 0.9 | 0.9 | 0.00 | 0.00 | 0.00 | 79 | 1013.4 |
| 20260901154430 | 65 | 135 | 0.9 | 0.9 | 0.00 | 0.00 | 0.00 | 79 | 1013.4 |
| 20260901153345 | 64 | 135 | 0.9 | 0.9 | 0.00 | 0.00 | 0.00 | 82 | 1013.4 |
| 20260901152835 | 63 | 225 | 0.0 | 0.0 | 0.00 | 0.00 | 0.00 | 83 | 1013.4 |
| 20260901152330 | 63 | 158 | 3.5 | 3.5 | 0.00 | 0.00 | 0.00 | 83 | 1013.4 |
| 20260901151825 | 63 | 158 | 2.6 | 2.6 | 0.00 | 0.00 | 0.00 | 84 | 1013.4 |
| 20260901151320 | 63 | 158 | 2.6 | 2.6 | 0.00 | 0.00 | 0.00 | 85 | 1013.3 |
| 20260901150640 | 63 | 158 | 2.6 | 2.6 | 0.00 | 0.00 | 0.00 | 86 | 1013.3 |
| 20260901150135 | 63 | 135 | 2.6 | 2.6 | 0.00 | 0.00 | 0.00 | 86 | 1012.8 |
| 20260901145050 | 62 | 180 | 0.9 | 0.9 | 0.00 | 0.00 | 0.00 | 87 | 1012.7 |
| 20260901144035 | 62 | 135 | 2.6 | 2.6 | 0.00 | 0.00 | 0.00 | 88 | 1012.7 |
| 20260901143530 | 62 | 113 | 4.3 | 4.3 | 0.00 | 0.00 | 0.00 | 88 | 1012.6 |
| 20260901143026 | 62 | 135 | 3.5 | 3.5 | 0.00 | 0.00 | 0.00 | 89 | 1012.6 |
| 20260901141505 | 61 | 158 | 2.6 | 2.6 | 0.00 | 0.00 | 0.00 | 90 | 1012.4 |
| 20260901140455 | 61 | 180 | 3.5 | 3.5 | 0.00 | 0.00 | 0.00 | 90 | 1012.4 |
| 20260901135950 | 61 | 203 | 0.0 | 0.0 | 0.00 | 0.00 | 0.00 | 90 | 1012.3 |
| 20260901135405 | 61 | 180 | 0.0 | 0.0 | 0.00 | 0.00 | 0.00 | 90 | 1012.3 |
| 20260901134335 | 61 | 248 | 0.0 | 0.0 | 0.00 | 0.00 | 0.00 | 90 | 1012.4 |
| 20260901133305 | 61 | 203 | 0.0 | 0.0 | 0.00 | 0.00 | 0.00 | 90 | 1012.2 |
| 20260901132800 | 61 | 225 | 0.0 | 0.0 | 0.00 | 0.00 | 0.00 | 90 | 1012.2 |
| 20260901132255 | 61 | 315 | 0.0 | 0.0 | 0.00 | 0.00 | 0.00 | 90 | 1012.2 |
| 20260901131750 | 61 | 270 | 0.9 | 0.9 | 0.00 | 0.00 | 0.00 | 90 | 1012.2 |
| 20260901130735 | 61 | 180 | 2.6 | 2.6 | 0.00 | 0.00 | 0.00 | 90 | 1012.1 |
| 20260901130230 | 61 | 180 | 0.0 | 0.0 | 0.00 | 0.00 | 0.00 | 90 | 1012.0 |
| 20260901125706 | 61 | 158 | 0.0 | 0.0 | 0.00 | 0.00 | 0.00 | 90 | 1012.0 |
| 20260901124130 | 61 | 113 | 0.0 | 0.0 | 0.00 | 0.00 | 0.00 | 90 | 1012.1 |
| 20260901123625 | 61 | 338 | 0.0 | 0.0 | 0.00 | 0.00 | 0.00 | 90 | 1012.0 |
| 20260901123115 | 61 | 315 | 0.9 | 0.9 | 0.00 | 0.00 | 0.00 | 90 | 1012.0 |
| 20260901122105 | 61 | 180 | 0.0 | 0.0 | 0.00 | 0.00 | 0.00 | 90 | 1011.9 |
| 20260901121601 | 61 | 0 | 0.0 | 0.0 | 0.00 | 0.00 | 0.00 | 90 | 1011.9 |
| 20260901121055 | 61 | 180 | 0.0 | 0.0 | 0.00 | 0.00 | 0.00 | 90 | 1011.9 |
| 20260901120545 | 61 | 293 | 0.0 | 0.0 | 0.00 | 0.00 | 0.00 | 90 | 1011.9 |
| 20260901120040 | 61 | 180 | 0.9 | 0.9 | 0.00 | 0.00 | 0.00 | 90 | 1011.7 |
| 20260901115535 | 61 | 135 | 0.0 | 0.0 | 0.00 | 0.00 | 0.00 | 89 | 1011.7 |
| 20260901115030 | 61 | 203 | 0.0 | 0.0 | 0.00 | 0.00 | 0.00 | 89 | 1011.7 |
| 20260901114525 | 60 | 315 | 0.0 | 0.0 | 0.00 | 0.00 | 0.00 | 89 | 1011.7 |
| 20260901114015 | 60 | 0 | 0.0 | 0.0 | 0.00 | 0.00 | 0.00 | 89 | 1011.7 |
| 20260901113510 | 60 | 0 | 0.0 | 0.0 | 0.00 | 0.00 | 0.00 | 89 | 1011.7 |
| 20260901113005 | 59 | 68 | 0.0 | 0.0 | 0.00 | 0.00 | 0.00 | 89 | 1011.7 |
| 20260901112500 | 59 | 180 | 0.0 | 0.0 | 0.00 | 0.00 | 0.00 | 89 | 1011.7 |
| 20260901111955 | 59 | 45 | 0.0 | 0.0 | 0.00 | 0.00 | 0.00 | 89 | 1011.7 |
| 20260901111445 | 59 | 45 | 0.0 | 0.0 | 0.00 | 0.00 | 0.00 | 89 | 1011.9 |
| 20260901110940 | 59 | 135 | 0.0 | 0.0 | 0.00 | 0.00 | 0.00 | 89 | 1011.9 |
| 20260901110435 | 60 | 338 | 0.0 | 0.0 | 0.00 | 0.00 | 0.00 | 89 | 1011.9 |
| 20260901105931 | 60 | 0 | 0.0 | 0.0 | 0.00 | 0.00 | 0.00 | 89 | 1012.0 |
| 20260901105425 | 60 | 338 | 0.0 | 0.0 | 0.00 | 0.00 | 0.00 | 89 | 1012.0 |
| 20260901104915 | 60 | 293 | 0.9 | 0.9 | 0.00 | 0.00 | 0.00 | 89 | 1012.0 |
| 20260901104355 | 60 | 90 | 0.0 | 0.0 | 0.00 | 0.00 | 0.00 | 89 | 1012.0 |
| 20260901103846 | 60 | 23 | 0.0 | 0.0 | 0.00 | 0.00 | 0.00 | 89 | 1012.0 |
| 20260901103340 | 60 | 0 | 0.9 | 0.9 | 0.00 | 0.00 | 0.00 | 89 | 1012.0 |
| 20260901102836 | 60 | 338 | 0.9 | 0.9 | 0.00 | 0.00 | 0.00 | 89 | 1012.0 |
| 20260901102330 | 60 | 225 | 0.9 | 0.9 | 0.00 | 0.00 | 0.00 | 89 | 1012.0 |
| 20260901101826 | 60 | 338 | 3.5 | 3.5 | 0.00 | 0.00 | 0.00 | 89 | 1012.0 |
| 20260901101315 | 60 | 338 | 1.7 | 1.7 | 0.00 | 0.00 | 0.00 | 89 | 1012.2 |
| 20260901100811 | 60 | 293 | 1.7 | 1.7 | 0.00 | 0.00 | 0.00 | 89 | 1012.2 |
| 20260901100305 | 60 | 293 | 0.9 | 0.9 | 0.00 | 0.00 | 0.00 | 89 | 1012.0 |
| 20260901094745 | 60 | 270 | 0.0 | 0.0 | 0.00 | 0.00 | 0.00 | 88 | 1011.9 |
| 20260901094241 | 60 | 315 | 0.0 | 0.0 | 0.00 | 0.00 | 0.00 | 88 | 1011.9 |
| 20260901093735 | 60 | 203 | 0.0 | 0.0 | 0.00 | 0.00 | 0.00 | 88 | 1011.8 |
| 20260901093230 | 60 | 180 | 0.0 | 0.0 | 0.00 | 0.00 | 0.00 | 88 | 1011.8 |